This demonstration page uses our WeatherBlox Daily Observations layout. Learn more.

Hourly Observations for October 28, 2017

Temp ( °F °C ) Dew Point ( °F °C ) Humidity (%) Winds ( mph kmh ) Pressure ( in mb ) Visibility ( mi km ) Precip ( " mm )
12:54 am 00:54 Clear 30 -1.1 20 -6.7 66 66 NW 8 13 30.15 1021 10 16.09344 0 0
1:54 am 01:54 Clear 29 -1.7 19 -7.2 66 66 NW 9 15 30.15 1021 10 16.09344 0 0
2:54 am 02:54 Clear 27 -2.8 19 -7.2 72 72 NW 9 15 30.15 1021 10 16.09344 0 0
3:54 am 03:54 Clear 27 -2.8 18 -7.8 69 69 undefined N/A 30.15 1021 10 16.09344 0.001 0.001
4:54 am 04:54 Clear with Light Snow 26 -3.3 17 -8.3 69 69 undefined N/A 30.15 1021 10 16.09344 0.001 0.001
5:54 am 05:54 Clear 24 -4.4 16 -8.9 71 71 NW 3 6 30.15 1021 10 16.09344 0.001 0.001
6:54 am 06:54 Clear with Light Snow 24 -4.4 15 -9.4 68 68 undefined N/A 30.18 1022 9 14.484096 0.001 0.001
7:54 am 07:54 Sunny 24 -4.4 16 -8.9 71 71 NW 5 7 30.18 1022 10 16.09344 0.001 0.001
8:54 am 08:54 Sunny 25 -3.9 15 -9.4 66 66 WNW 3 6 30.18 1022 10 16.09344 0 0
9:54 am 09:54 Sunny 30 -1.1 17 -8.3 58 58 WNW 5 7 30.18 1022 10 16.09344 0 0
10:54 am 10:54 Sunny 36 2.2 17 -8.3 46 46 NW 3 6 30.15 1021 10 16.09344 0 0
11:54 am 11:54 Sunny 42 5.6 15 -9.4 33 33 N 3 6 30.15 1021 10 16.09344 0 0
12:54 pm 12:54 Sunny 45 7.2 12 -11.1 26 26 Calm 30.09 1019 10 16.09344 0 0
1:54 pm 13:54 Sunny 48 8.9 9 -12.8 20 20 SSE 5 7 30.06 1018 10 16.09344 0 0
2:54 pm 14:54 Sunny 50 10 4 -15.6 15 15 W 6 9 30.03 1017 10 16.09344 0 0
3:54 pm 15:54 Sunny 52 11.1 1 -17.2 12 12 WSW 13 20 30 1016 10 16.09344 0 0
4:54 pm 16:54 Sunny 52 11.1 -1 -18.3 11 11 WSW 8 13 30 1016 10 16.09344 0 0
5:54 pm 17:54 Sunny 51 10.6 -1 -18.3 11 11 undefined N/A 29.97 1015 10 16.09344 0 0
6:54 pm 18:54 Clear 38 3.3 10 -12.2 31 31 undefined N/A 29.97 1015 10 16.09344 0 0
7:54 pm 19:54 Clear 36 2.2 11 -11.7 35 35 undefined N/A 29.97 1015 10 16.09344 0 0
8:54 pm 20:54 Clear 34 1.1 12 -11.1 40 40 undefined N/A 29.97 1015 10 16.09344 0 0
9:54 pm 21:54 Clear 37 2.8 10 -12.2 33 33 undefined N/A 29.94 1014 10 16.09344 0 0
10:54 pm 22:54 Mostly Clear 38 3.3 14 -10 37 37 undefined N/A 29.91 1013 10 16.09344 0 0
11:54 pm 23:54 Cloudy 42 5.6 9 -12.8 25 25 undefined N/A 29.91 1013 10 16.09344 0 0

Powered by AerisWeather